Beverly, MA

5:50 PM EDT on September 23, 2017 (GMT -0400)
Beverly Municipal

Weather History for KBVY - February, 2014

Change the Weather History Date:

Thursday, February 13, 2014

  Actual Average Record
Temperature  
Mean Temperature 24 °F -  
Max Temperature 34 °F 34 °F 54 °F (1984)
Min Temperature 14 °F 17 °F -7 °F (2016)
Degree Days  
Heating Degree Days 41    
Moisture  
Dew Point 24 °F    
Average Humidity 86    
Maximum Humidity 93    
Minimum Humidity 71    
Precipitation  
Precipitation 1.10 in - - ()
Sea Level Pressure  
Sea Level Pressure 29.90 in    
Wind  
Wind Speed 7 mph (NNE)    
Max Wind Speed 28 mph    
Max Gust Speed 41 mph    
Visibility 4 miles    
Events Fog , Rain , Snow    
Averages and records for this station are not official NWS values.
T = Trace of Precipitation, MM = Missing Value Source: NWS Daily Summary

Daily Weather History Graph

Daily Weather History Graph

Search for Another Location

Airport or City:

Trip Planner

Search our weather history database for the weather conditions in past years. The results will help you decide how hot, cold, wet, or windy it might be!

Date:

Astronomy

Feb. 13, 2014 Rise Set
Actual Time 6:43 AM EST 5:13 PM EST
Civil Twilight 6:14 AM EST 5:42 PM EST
Nautical Twilight 5:41 AM EST 6:15 PM EST
Astronomical Twilight 5:08 AM EST 6:47 PM EST
Moon 4:18 PM EST (2/13) 5:35 AM EST (2/13)
Length of Visible Light 11h 27m
Length of Day
10h 29m
Waxing Gibbous, 98% of the Moon is Illuminated
Feb 13
Waxing Gibbous
Feb 14
Full
Feb 22
Last Quarter
Mar 1
New
Mar 8
First Quarter

Hourly Weather History & Observations

Time (EST) Temp. Windchill Dew Point Humidity Pressure Visibility Wind Dir Wind Speed Gust Speed Precip Events Conditions
12:32 AM 15.1 °F - 9.0 °F 77% 30.40 in 10.0 mi Calm Calm - N/A   Mostly Cloudy
12:53 AM 14.0 °F - 9.0 °F 80% 30.39 in 10.0 mi Calm Calm - N/A   Overcast
1:53 AM 15.1 °F 7.7 °F 9.0 °F 77% 30.36 in 10.0 mi NE 4.6 mph - N/A   Overcast
2:09 AM 16.0 °F 10.4 °F 9.0 °F 74% 30.37 in 10.0 mi North 3.5 mph - N/A   Scattered Clouds
2:53 AM 17.1 °F - 10.0 °F 74% 30.34 in 10.0 mi Calm Calm - N/A   Mostly Cloudy
3:53 AM 19.0 °F - 12.0 °F 74% 30.32 in 10.0 mi Calm Calm - N/A   Overcast
4:53 AM 19.9 °F - 12.0 °F 71% 30.29 in 10.0 mi Calm Calm - N/A   Overcast
5:17 AM 19.9 °F 13.4 °F 12.9 °F 74% 30.29 in 10.0 mi North 4.6 mph - N/A   Overcast
5:53 AM 21.0 °F 14.6 °F 14.0 °F 74% 30.28 in 10.0 mi NNW 4.6 mph - N/A   Overcast
6:53 AM 21.9 °F 14.5 °F 15.1 °F 75% 30.25 in 6.0 mi North 5.8 mph - 0.00 in Snow Light Snow
7:10 AM 23.0 °F - 16.0 °F 74% 30.25 in 1.8 mi Calm Calm - 0.00 in Snow Light Snow
7:53 AM 23.0 °F 18.4 °F 19.0 °F 85% 30.22 in 1.8 mi NNE 3.5 mph - 0.00 in Snow Light Snow
8:07 AM 23.0 °F 15.8 °F 19.0 °F 85% 30.21 in 1.8 mi NNE 5.8 mph - 0.00 in Snow Light Snow
8:16 AM 23.0 °F 15.8 °F 19.0 °F 85% 30.20 in 2.0 mi NNE 5.8 mph - 0.00 in Snow Light Snow
8:27 AM 24.1 °F 17.0 °F 19.9 °F 84% 30.20 in 1.5 mi NNE 5.8 mph - 0.00 in Snow Light Snow
8:53 AM 24.1 °F 17.0 °F 21.0 °F 88% 30.18 in 1.2 mi North 5.8 mph - 0.01 in Snow Light Snow
9:12 AM 26.1 °F 20.5 °F 21.9 °F 84% 30.16 in 2.0 mi NNE 4.6 mph - 0.00 in Snow Light Snow
9:20 AM 26.1 °F 20.5 °F 23.0 °F 88% 30.16 in 1.8 mi NNE 4.6 mph - 0.00 in Snow Light Snow
9:39 AM 27.0 °F 18.7 °F 24.1 °F 89% 30.14 in 0.8 mi NNE 8.1 mph - 0.01 in Snow Light Snow
9:53 AM 27.0 °F 20.5 °F 25.0 °F 92% 30.12 in 0.5 mi North 5.8 mph - 0.03 in Fog , Snow Snow
10:53 AM 32.0 °F 25.6 °F 30.0 °F 92% 30.07 in 0.5 mi ENE 6.9 mph - 0.07 in Fog , Snow Snow
11:01 AM 33.1 °F 26.9 °F 30.0 °F 89% 30.06 in 0.5 mi ENE 6.9 mph - 0.01 in Fog , Snow Snow
11:53 AM 33.1 °F 26.1 °F 30.9 °F 92% 30.00 in 0.8 mi NE 8.1 mph - 0.06 in Snow Light Snow
12:53 PM 33.1 °F 24.4 °F 30.9 °F 92% 29.90 in 0.5 mi NE 11.5 mph - 0.08 in Fog , Snow Snow
1:18 PM 33.1 °F 23.0 °F 30.9 °F 92% 29.86 in 0.2 mi NE 15.0 mph - 0.04 in Fog , Snow Heavy Snow
1:31 PM 33.1 °F 23.4 °F 30.9 °F 92% 29.84 in 0.2 mi NE 13.8 mph 25.3 mph 0.07 in Fog , Snow Heavy Snow
1:53 PM 33.1 °F 22.6 °F 30.9 °F 92% 29.80 in 0.2 mi NE 16.1 mph 25.3 mph 0.15 in Fog , Snow Heavy Snow
2:53 PM 33.1 °F 22.2 °F 30.9 °F 92% 29.72 in 0.2 mi NE 17.3 mph 29.9 mph 0.22 in Fog , Snow Heavy Snow
3:13 PM 33.1 °F 21.9 °F 30.9 °F 92% 29.69 in 0.5 mi NE 18.4 mph 29.9 mph 0.04 in Fog , Snow Snow
3:26 PM 33.1 °F 20.9 °F 30.9 °F 92% 29.67 in 1.0 mi NE 21.9 mph 29.9 mph 0.07 in Snow Light Snow
3:39 PM 33.1 °F 21.2 °F 30.9 °F 92% 29.64 in 0.8 mi NE 20.7 mph 29.9 mph 0.09 in Snow Light Snow
3:53 PM 33.1 °F 22.2 °F 30.9 °F 92% 29.63 in 1.0 mi NE 17.3 mph 28.8 mph 0.12 in Snow Light Snow
4:43 PM 33.1 °F 20.6 °F 30.9 °F 92% 29.54 in 2.0 mi NNE 23.0 mph 34.5 mph 0.11 in Rain Rain
4:53 PM 33.1 °F 22.2 °F 30.9 °F 92% 29.53 in 1.5 mi NNE 17.3 mph 39.1 mph 0.14 in Rain Rain
5:35 PM 33.1 °F 19.6 °F 30.9 °F 92% 29.47 in 2.0 mi NNE 27.6 mph 40.3 mph 0.06 in Snow Light Snow
5:53 PM 33.1 °F 20.3 °F 30.9 °F 92% 29.45 in 2.5 mi NNE 24.2 mph 36.8 mph 0.07 in Rain Light Rain
6:53 PM 33.1 °F 20.9 °F 30.9 °F 92% 29.39 in 2.5 mi NNE 21.9 mph 38.0 mph 0.05 in Snow Light Snow
7:53 PM 33.1 °F 20.9 °F 30.9 °F 92% 29.31 in 2.5 mi NNE 21.9 mph 39.1 mph 0.05 in Snow Light Snow
8:48 PM 33.8 °F 24.3 °F 32.0 °F 93% 29.26 in 4.0 mi NNE 13.8 mph 32.2 mph 0.01 in Rain Light Rain
8:53 PM 34.0 °F 24.2 °F 32.0 °F 92% 29.26 in 5.0 mi North 15.0 mph 28.8 mph 0.01 in Rain Light Rain
9:53 PM 34.0 °F 22.7 °F 32.0 °F 92% 29.18 in 7.0 mi NNE 19.6 mph 32.2 mph 0.01 in   Overcast
10:53 PM 34.0 °F 21.3 °F 32.0 °F 92% 29.08 in 5.0 mi NNE 25.3 mph 41.4 mph 0.00 in Rain Light Rain
11:53 PM 34.0 °F 22.1 °F 30.9 °F 89% 29.01 in 6.0 mi NNE 21.9 mph 35.7 mph 0.03 in Rain Light Rain